Vorticity
nan nan nan nan nan nan nan nan nan nan nan nan nan nan nan nan nan nan nan nan nan nan nan nan nan nan nan nan nan nan nan nan nan nan nan nan nan nan nan nan nan nan nan
nan 11 9 9 9 8 9 9 9 8 8 8 8 8 8 8 8 8 7 7 8 7 7 8 9 9 8 9 9 9 9 9 7 7 8 10 12 14 11 10 11 11 nan
nan 10 10 9 9 9 9 9 9 8 8 8 9 9 8 8 8 8 8 8 8 8 8 8 8 8 9 9 8 8 9 10 10 11 8 10 12 9 12 13 12 15 nan
nan 11 10 10 9 9 10 10 10 8 9 9 9 8 8 9 8 9 8 7 7 8 8 9 10 9 5 5 9 9 9 10 10 10 9 9 11 11 12 11 15 18 nan
nan 10 9 10 10 10 9 10 10 9 9 9 8 8 9 8 9 9 7 7 7 8 9 10 10 6 4 6 8 8 8 11 9 9 10 9 9 11 9 13 17 13 nan
nan 10 11 12 11 10 10 10 9 10 10 9 9 9 6 10 12 6 3 6 9 9 9 10 7 7 10 11 6 6 11 6 5 8 8 8 6 9 10 13 16 9 nan
nan 12 11 11 10 10 10 9 9 9 9 9 9 9 8 11 11 7 3 5 10 9 9 8 8 9 10 11 11 13 13 9 8 11 11 9 11 10 6 15 18 9 nan
nan 13 12 11 10 10 10 9 9 10 9 9 9 9 8 12 11 7 6 8 9 8 8 8 8 8 9 7 12 13 11 14 15 8 6 5 6 7 11 22 15 11 nan
nan 13 12 11 11 10 10 9 8 9 10 10 10 10 8 11 12 7 7 8 7 8 9 9 7 8 5 5 12 12 9 9 9 8 9 9 12 19 29 21 14 11 nan
nan 14 13 12 11 10 10 9 9 10 8 9 12 11 9 9 12 9 6 7 8 9 10 10 9 6 6 11 11 10 11 12 13 15 16 15 18 34 32 9 12 8 nan
nan 15 14 13 12 11 10 9 11 10 11 10 9 10 10 9 10 11 6 4 5 8 9 10 9 6 7 8 13 13 8 10 13 15 13 14 13 21 18 10 9 8 nan
nan 16 15 12 10 14 12 10 10 10 10 10 7 7 9 13 12 10 10 4 3 9 9 8 5 7 6 11 11 8 12 20 15 12 11 11 11 11 9 12 11 14 nan
nan 16 14 12 12 12 10 8 9 9 8 9 9 8 9 10 14 15 11 8 10 11 9 8 8 8 10 11 8 13 21 16 9 10 11 11 10 10 14 14 15 18 nan
nan 12 13 13 12 11 10 10 9 9 9 10 9 9 10 9 10 12 11 13 13 10 9 12 14 11 11 12 13 15 14 11 10 11 11 11 11 11 14 15 16 12 nan
nan 12 11 11 11 10 12 12 12 13 11 8 10 12 10 10 11 10 7 7 9 8 10 11 11 11 10 11 11 10 12 10 10 10 11 11 12 11 16 17 12 8 nan
nan 12 12 11 11 10 9 10 15 16 12 11 11 7 9 13 11 10 5 3 7 11 14 11 10 8 9 9 9 10 10 10 11 11 10 11 11 11 15 15 13 12 nan
nan 16 12 11 11 10 10 9 9 11 12 12 10 10 8 9 10 8 8 10 12 15 13 11 10 9 9 10 9 9 10 9 11 12 10 10 11 10 17 19 12 11 nan
nan 12 11 10 10 10 10 10 10 10 8 10 11 12 11 10 9 9 11 13 13 12 10 10 11 9 9 10 10 10 10 10 10 11 11 10 11 12 15 17 15 12 nan
nan 9 11 10 11 10 9 10 12 12 10 9 10 12 13 10 8 11 13 12 10 9 10 11 11 10 9 10 11 11 9 9 10 11 11 10 10 12 12 19 20 13 nan
nan 9 8 9 11 10 11 11 10 12 11 10 10 9 10 10 10 12 11 11 10 10 10 10 11 11 11 10 11 10 9 11 11 10 10 11 11 11 10 20 20 12 nan
nan 12 8 7 12 11 11 11 11 12 11 10 11 13 10 8 10 10 11 10 9 10 10 10 11 11 12 10 10 10 10 12 11 9 10 11 10 11 13 17 17 13 nan
nan 14 12 11 10 12 13 13 11 11 12 11 10 10 11 11 11 12 11 9 10 10 10 11 11 11 11 10 10 10 11 12 11 10 9 10 11 13 12 14 20 16 nan
nan 11 11 12 15 13 9 10 11 11 11 11 11 10 10 10 11 12 11 10 9 10 11 11 11 11 11 11 11 11 11 10 11 10 9 11 12 13 13 10 20 20 nan
nan 13 11 11 10 10 12 11 11 11 11 10 10 10 11 11 11 11 12 11 10 10 10 10 11 10 10 10 10 10 11 10 9 8 11 11 10 11 13 14 20 19 nan
nan 13 12 10 10 10 10 12 12 11 11 11 11 10 11 12 11 10 11 10 10 10 9 11 11 10 10 10 10 12 12 10 8 8 12 11 13 15 16 14 17 20 nan
nan nan nan nan nan nan nan nan nan nan nan nan nan nan nan nan nan nan nan nan nan nan nan nan nan nan nan nan nan nan nan nan nan nan nan nan nan nan nan nan nan nan nan
CAPE
0 0 0 0 0 0 0 0 0 0 0 0 0 0 0 0 0 0 0 0 0 0 0 0 0 0 0 0 0 0 0 1 33 0 6 3 6 9 10 7 7 14 21
0 0 0 0 0 0 0 0 0 0 0 0 0 0 0 0 0 0 0 0 0 0 0 0 0 0 0 0 0 0 0 2 31 34 19 16 16 0 39 16 7 13 20
0 0 0 0 0 0 0 0 0 0 0 0 0 0 0 0 0 0 0 0 0 0 0 0 0 0 0 0 0 0 3 9 32 58 39 39 45 44 5 14 13 9 15
0 0 0 0 0 0 0 0 0 0 0 0 0 0 0 0 0 0 0 0 0 0 0 0 0 0 0 0 1 18 26 65 65 70 77 62 6 2 11 14 9 19 18
0 0 0 0 0 0 0 0 0 0 0 0 0 0 0 0 0 0 0 0 0 0 0 0 0 0 4 11 13 23 67 89 80 74 76 14 8 12 19 20 21 54 107
0 0 0 0 0 0 0 0 0 0 0 0 0 0 0 0 0 0 0 0 0 0 0 0 0 0 0 1 14 28 53 29 37 85 21 19 35 18 13 67 84 109 104
0 0 0 0 0 0 0 0 0 0 0 0 0 0 0 0 0 0 0 0 0 0 0 0 0 0 0 3 9 34 35 45 50 54 29 28 9 5 29 25 29 90 112
0 0 0 0 0 0 0 0 0 0 0 0 0 0 0 0 0 0 0 0 0 0 0 0 0 0 0 13 16 26 14 22 26 15 26 25 43 34 19 20 13 94 96
0 0 0 0 0 0 0 0 0 0 0 0 0 0 0 0 0 0 0 0 0 0 0 0 0 0 3 29 23 21 29 14 2 4 45 29 30 35 39 20 77 65 14
0 0 0 0 0 0 0 0 0 0 0 0 0 0 0 0 0 0 0 0 0 0 0 0 0 6 14 41 38 38 30 5 2 14 1 2 6 3 70 93 73 31 40
0 0 0 0 0 0 0 0 0 0 0 0 0 0 0 0 0 0 0 0 0 0 0 0 0 0 21 22 18 23 27 26 1 3 9 10 7 7 123 100 89 76 55
0 0 0 0 0 0 0 0 0 0 0 0 0 0 0 0 0 0 0 0 0 2 2 1 4 9 16 0 3 10 27 25 5 11 13 9 8 7 1 79 42 24 25
0 0 0 0 0 0 0 0 0 0 0 0 0 0 0 0 0 0 0 0 0 2 9 17 32 11 0 0 0 1 10 21 9 12 12 9 7 8 2 49 39 24 12
0 0 0 0 0 0 0 0 0 0 0 0 0 0 0 0 0 0 0 0 0 0 0 12 1 1 0 0 0 0 8 27 14 10 14 9 6 3 3 7 20 2 0
0 0 0 0 0 0 0 0 0 0 0 0 0 0 0 0 0 0 0 0 1 0 17 24 4 0 0 0 0 5 17 20 10 6 12 8 5 5 2 28 15 4 0
0 0 0 0 0 0 0 0 0 0 0 0 0 0 0 0 0 0 6 1 0 3 18 22 10 0 0 0 0 3 21 22 12 5 8 10 8 5 3 38 10 6 1
0 0 0 0 0 0 0 0 0 0 0 0 0 0 0 0 0 2 0 0 0 7 2 0 0 0 0 0 0 1 14 24 6 8 6 11 9 5 4 34 2 3 1
0 0 0 0 0 0 0 0 0 0 0 0 0 0 0 0 0 0 0 6 2 0 0 0 0 0 0 0 0 5 12 31 10 6 6 10 10 7 4 14 9 1 1
0 0 0 0 0 0 0 0 0 0 0 0 0 0 0 0 0 0 0 1 0 0 0 0 0 0 3 1 3 5 19 34 15 4 7 8 11 10 6 4 4 0 1
1 1 0 0 0 0 0 0 0 0 0 0 0 0 0 0 0 0 0 0 0 0 0 0 0 4 14 15 13 10 19 22 15 3 6 8 10 11 7 3 2 2 0
12 13 0 0 0 0 0 0 0 0 0 0 0 0 0 0 3 1 3 0 0 0 0 0 0 9 27 29 23 19 14 21 20 4 6 8 11 9 8 3 4 0 0
0 0 0 0 0 0 0 0 0 0 0 0 0 0 0 4 6 10 9 3 0 0 0 0 0 8 18 21 15 9 13 21 14 9 7 7 7 9 8 6 2 0 0
0 0 0 0 0 1 0 0 0 0 0 0 0 0 0 0 0 6 6 3 0 0 0 1 12 17 12 17 12 8 14 13 17 11 6 5 6 8 7 7 3 0 0
0 0 0 0 0 0 0 0 0 0 0 0 0 0 0 0 1 3 2 0 0 0 0 0 1 3 5 15 5 0 1 3 7 1 4 4 4 7 8 4 3 0 0
0 0 0 0 0 0 0 0 1 1 0 0 0 0 0 0 2 3 1 2 1 0 1 4 1 0 6 14 5 0 0 0 0 0 1 3 4 4 6 6 3 1 0
0 0 0 0 0 0 0 1 2 3 10 12 9 4 9 19 1 0 3 1 1 0 1 7 1 14 22 18 3 0 0 0 0 0 0 2 5 5 7 5 1 0 0